Johnstown, PA

3:31 AM EDT on March 26, 2017 (GMT -0400)
Johnstown-Cambria County

Weather History for KJST - July, 2013

Change the Weather History Date:

Tuesday, July 30, 2013

  Actual Average Record
Temperature  
Mean Temperature 62 °F 69 °F  
Max Temperature 71 °F 78 °F 96 °F (1988)
Min Temperature 52 °F 60 °F 42 °F (1956)
Degree Days  
Heating Degree Days 3 0  
Month to date heating degree days 23 8  
Since 1 June heating degree days 86 87  
Since 1 July heating degree days 23 8  
Cooling Degree Days 0 5  
Month to date cooling degree days 161 145  
Year to date cooling degree days 271 238  
Since 1 June cooling degree days 230 220  
Growing Degree Days 12 (Base 50)    
Moisture  
Dew Point 51 °F    
Average Humidity 71    
Maximum Humidity 89    
Minimum Humidity 53    
Precipitation  
Precipitation 0.00 in 0.15 in 2.20 in (2016)
Month to date precipitation 2.62 3.71  
Year to date precipitation 19.39 20.35  
Sea Level Pressure  
Sea Level Pressure 30.23 in    
Wind  
Wind Speed 4 mph (West)    
Max Wind Speed 12 mph    
Max Gust Speed 17 mph    
Visibility 10 miles    
Events      
T = Trace of Precipitation, MM = Missing Value Source: NWS Daily Summary

Daily Weather History Graph

Daily Weather History Graph

Search for Another Location

Airport or City:

Trip Planner

Search our weather history database for the weather conditions in past years. The results will help you decide how hot, cold, wet, or windy it might be!

Date:

Astronomy

Jul. 30, 2013 Rise Set
Actual Time 6:11 AM EDT 8:31 PM EDT
Civil Twilight 5:40 AM EDT 9:02 PM EDT
Nautical Twilight 5:02 AM EDT 9:39 PM EDT
Astronomical Twilight 4:20 AM EDT 10:21 PM EDT
Moon 12:28 AM EDT (7/30) 2:49 PM EDT (7/30)
Length of Visible Light 15h 21m
Length of Day
14h 20m
Last Quarter, 41% of the Moon is Illuminated
Jul 30
Last Quarter
Aug 6
New
Aug 14
First Quarter
Aug 20
Full
Aug 28
Last Quarter

Hourly Weather History & Observations

Time (EDT) Temp. Dew Point Humidity Pressure Visibility Wind Dir Wind Speed Gust Speed Precip Events Conditions
12:54 AM 57.0 °F 50.0 °F 77% 30.22 in 10.0 mi WNW 4.6 mph - N/A   Partly Cloudy
1:54 AM 55.9 °F 50.0 °F 80% 30.23 in 10.0 mi West 3.5 mph - N/A   Clear
2:54 AM 55.0 °F 51.1 °F 86% 30.23 in 10.0 mi SW 3.5 mph - N/A   Clear
3:54 AM 54.0 °F 50.0 °F 86% 30.22 in 10.0 mi WSW 3.5 mph - N/A   Clear
4:54 AM 54.0 °F 50.0 °F 86% 30.23 in 10.0 mi West 4.6 mph - N/A   Clear
5:54 AM 53.1 °F 50.0 °F 89% 30.24 in 10.0 mi WSW 4.6 mph - N/A   Clear
6:54 AM 55.0 °F 50.0 °F 83% 30.25 in 10.0 mi West 4.6 mph - N/A   Clear
7:54 AM 57.0 °F 51.1 °F 81% 30.26 in 10.0 mi SW 4.6 mph - N/A   Clear
8:54 AM 60.1 °F 52.0 °F 75% 30.27 in 10.0 mi SW 5.8 mph - N/A   Scattered Clouds
9:54 AM 61.0 °F 52.0 °F 72% 30.27 in 10.0 mi West 3.5 mph - N/A   Overcast
10:54 AM 64.0 °F 53.1 °F 67% 30.26 in 10.0 mi WNW 8.1 mph - N/A   Clear
11:54 AM 64.9 °F 52.0 °F 63% 30.26 in 10.0 mi WNW 6.9 mph - N/A   Mostly Cloudy
12:54 PM 66.9 °F 52.0 °F 59% 30.25 in 10.0 mi NW 5.8 mph - N/A   Scattered Clouds
1:54 PM 68.0 °F 50.0 °F 52% 30.24 in 10.0 mi NW 5.8 mph - N/A   Mostly Cloudy
2:54 PM 68.0 °F 51.1 °F 55% 30.23 in 10.0 mi Variable 4.6 mph - N/A   Overcast
3:54 PM 68.0 °F 51.1 °F 55% 30.23 in 10.0 mi WSW 6.9 mph - N/A   Scattered Clouds
4:54 PM 70.0 °F 51.1 °F 51% 30.22 in 10.0 mi West 4.6 mph - N/A   Scattered Clouds
5:54 PM 70.0 °F 52.0 °F 53% 30.21 in 10.0 mi North 3.5 mph - N/A   Mostly Cloudy
6:54 PM 69.1 °F 52.0 °F 54% 30.21 in 10.0 mi WNW 6.9 mph - N/A   Overcast
7:54 PM 66.0 °F 52.0 °F 60% 30.21 in 10.0 mi West 4.6 mph - N/A   Clear
8:54 PM 64.9 °F 52.0 °F 63% 30.21 in 10.0 mi Calm Calm - N/A   Clear
9:54 PM 64.0 °F 52.0 °F 65% 30.20 in 10.0 mi Calm Calm - N/A   Clear
10:54 PM 63.0 °F 52.0 °F 67% 30.21 in 10.0 mi Calm Calm - N/A   Clear
11:54 PM 63.0 °F 53.1 °F 70% 30.19 in 10.0 mi Calm Calm - N/A   Clear